GFSFLT1_sfc_30mbdewp_153.txt.gz
Dewpoint
34 34 34 34 34 33 33 34 34 35 35 34 34 35 36 36 37 38 39 40 42 43 45 47 49 55 64 63 63 62 62 61
34 34 34 34 33 32 33 33 33 34 33 33 33 33 34 36 36 37 39 40 41 42 44 47 48 48 59 62 62 61 62 62
33 33 33 33 31 31 32 32 33 34 33 33 34 34 35 35 36 37 38 39 41 42 42 44 46 50 50 60 61 61 61 61
31 32 32 31 29 30 30 32 33 34 34 33 34 34 35 35 35 36 37 39 40 41 42 43 45 47 49 52 61 61 60 61
31 32 31 30 29 30 30 31 33 33 34 33 33 33 33 34 35 36 37 38 40 42 41 43 44 46 48 50 59 61 60 59
31 32 30 30 29 29 30 31 32 33 33 33 34 34 34 35 35 36 37 38 40 42 43 42 44 45 48 49 54 60 61 59
31 31 29 28 28 29 29 30 31 32 32 32 32 33 34 34 35 36 37 37 39 41 42 43 44 45 47 49 50 59 59 61
31 30 28 28 28 29 29 30 30 31 31 32 32 32 34 35 35 35 36 36 38 40 42 44 45 46 47 50 51 56 58 58
31 30 29 28 28 29 29 29 29 30 31 31 32 32 33 34 35 36 36 37 38 40 41 43 45 46 48 49 50 54 59 58
30 29 29 29 28 28 29 29 29 30 31 31 32 32 33 33 35 36 36 37 37 38 40 42 45 47 49 50 50 54 57 56
29 28 28 29 28 28 29 28 29 29 30 30 31 32 32 33 34 34 35 36 37 38 39 41 44 50 51 51 53 55 55 53
28 27 28 28 28 28 28 28 28 29 29 29 31 32 31 32 32 34 34 35 37 37 38 40 42 45 52 53 54 53 52 50
28 26 27 26 26 26 27 27 28 28 28 29 30 30 31 30 31 32 33 34 36 36 37 38 41 45 49 53 53 52 51 50
26 25 25 25 25 26 26 27 28 27 28 29 29 30 30 29 29 31 32 33 34 35 35 36 38 39 42 50 52 51 51 52
25 25 24 24 25 25 25 26 27 26 27 28 29 29 29 29 28 29 30 31 32 34 34 33 34 36 36 35 38 51 51 52
24 25 23 23 23 24 25 26 25 26 26 28 28 29 29 28 27 28 28 29 31 32 33 32 32 33 34 32 34 37 49 51
24 25 23 23 23 24 24 24 24 26 26 28 28 29 27 27 26 26 27 27 29 30 30 31 31 31 32 32 33 35 39 52
23 23 22 23 23 23 23 24 24 24 26 28 27 28 28 26 25 25 25 26 27 28 29 30 30 30 31 32 33 35 39 49
23 22 22 22 23 23 23 23 23 24 24 26 26 27 28 26 25 24 25 26 26 27 29 29 29 30 31 32 32 40 41 45

GFSFLT1_sfc_30mbdewp_156.txt.gz
Dewpoint
34 34 34 32 32 32 33 34 34 35 35 34 35 35 36 36 37 37 38 39 41 42 42 43 45 47 48 49 56 63 63 62
33 33 32 31 30 30 32 32 33 34 34 33 33 34 34 35 36 37 38 38 40 40 41 42 43 44 46 49 49 56 61 62
32 32 31 30 29 30 30 31 33 33 34 34 34 34 35 35 36 37 37 38 39 39 40 42 41 42 43 45 49 50 60 62
31 31 30 29 28 29 30 30 32 33 33 34 34 34 35 35 35 36 37 38 39 39 40 42 42 42 42 43 46 48 52 59
31 30 28 28 28 29 29 30 31 32 33 33 33 32 32 34 35 36 37 38 38 39 41 42 43 43 43 44 45 47 49 55
31 29 28 28 28 28 29 30 30 31 32 33 32 32 32 33 35 35 36 37 38 38 39 41 42 43 44 45 45 45 48 50
31 29 28 27 28 28 29 29 29 30 31 32 31 32 32 32 33 34 35 36 37 37 39 39 41 43 44 45 46 46 47 48
30 28 27 27 27 28 28 29 28 29 30 31 31 32 32 32 33 33 34 34 36 37 38 38 39 41 43 44 45 47 48 48
30 28 28 28 27 27 28 28 28 29 30 30 31 32 32 32 32 33 33 35 35 36 37 38 39 40 42 44 45 47 48 49
29 27 28 28 27 27 28 28 28 29 30 30 30 32 32 31 32 32 33 34 34 36 37 37 38 39 41 43 45 48 48 49
28 27 27 27 27 27 27 28 28 29 29 30 30 30 31 32 32 31 31 33 34 35 35 36 35 38 39 43 45 50 50 50
27 26 27 26 26 26 26 27 27 28 28 29 30 30 31 31 30 30 31 32 33 33 34 35 35 36 38 39 40 47 51 50
26 26 26 25 25 25 25 26 27 27 27 28 29 30 30 30 30 29 30 30 31 32 33 34 34 34 35 37 35 37 45 52
25 25 23 24 24 24 25 26 26 26 27 27 29 29 29 29 29 28 28 29 30 31 32 33 33 33 33 35 34 33 36 45
24 25 22 23 23 24 24 25 25 25 26 27 28 28 28 28 28 27 27 28 28 29 30 31 32 32 33 33 32 32 33 37
24 24 22 22 23 24 24 25 24 25 25 26 26 27 27 27 27 26 26 26 27 28 29 30 30 31 32 31 31 31 32 34
24 24 23 23 23 24 24 24 24 25 25 25 25 25 26 26 26 25 25 25 26 27 28 29 29 30 32 32 32 31 32 34
24 22 22 22 23 23 22 23 24 24 24 25 24 25 26 26 26 24 24 24 25 26 27 28 28 29 31 32 32 31 35 38
23 22 21 22 22 23 22 22 23 23 23 24 24 25 24 25 25 24 23 24 24 25 26 27 28 28 30 31 32 31 33 35

GFSFLT1_sfc_30mbdewp_162.txt.gz
Dewpoint
32 30 29 28 32 33 34 34 37 38 36 36 35 36 37 38 39 40 43 43 44 44 43 44 45 44 44 45 45 45 46 46
32 31 30 28 31 31 32 32 34 34 33 33 33 33 35 36 38 40 42 42 43 43 43 43 44 44 44 45 45 44 44 46
32 30 30 30 30 31 30 31 32 33 31 33 34 34 34 35 36 39 40 41 42 41 42 42 42 42 43 44 44 43 43 44
31 29 29 29 29 30 29 30 31 32 34 31 32 32 31 32 34 35 37 39 40 41 41 41 42 41 41 42 43 43 43 44
31 28 28 29 30 30 30 31 30 30 33 32 33 31 31 33 34 35 36 38 38 39 40 40 41 41 41 41 42 43 44 43
30 27 27 27 30 30 31 30 30 31 33 33 32 32 33 33 34 35 35 35 37 38 39 40 40 40 40 40 41 42 43 44
30 28 27 27 30 30 31 30 29 31 32 33 33 33 34 34 34 33 33 34 35 36 37 38 39 39 39 40 40 41 40 42
30 27 25 27 28 29 29 29 28 30 31 32 32 33 33 32 33 32 33 32 33 34 36 37 37 38 39 39 38 39 40 41
29 27 27 27 28 29 30 29 28 29 30 31 31 32 31 32 33 33 32 32 33 34 35 35 36 38 38 38 38 38 39 40
28 28 28 27 27 28 30 29 28 29 30 30 30 32 32 32 33 33 32 32 32 33 34 34 35 36 37 37 37 37 38 39
29 28 29 27 27 27 30 29 28 28 30 30 30 31 32 32 32 32 32 31 32 32 33 33 34 35 35 35 35 36 36 37
29 29 29 27 26 26 27 28 28 28 29 29 31 31 31 31 31 31 31 31 31 31 31 32 32 33 33 34 34 34 34 34
29 29 29 27 26 25 25 27 27 28 28 29 30 30 30 29 29 30 31 30 30 30 30 30 31 31 32 32 32 32 32 32
29 31 31 28 27 26 25 26 26 27 27 28 28 29 29 29 29 30 30 29 29 29 28 29 30 30 30 30 30 30 30 30
29 30 29 31 28 26 25 25 26 26 26 27 27 27 27 28 28 28 28 28 27 27 27 28 29 29 29 29 29 29 29 29
28 30 30 29 29 28 25 25 25 26 25 26 26 26 26 27 27 27 27 27 26 26 26 26 27 27 28 28 27 28 28 29
27 27 27 29 27 25 24 24 25 25 25 25 25 25 26 26 25 25 25 25 25 25 25 25 25 25 27 25 26 27 27 29
26 27 28 26 25 23 23 22 24 24 24 24 24 25 25 24 24 23 24 24 24 24 24 24 24 24 24 24 24 26 27 28
27 28 27 22 20 20 21 22 22 22 23 23 24 25 24 24 23 22 22 22 22 22 23 23 23 23 23 23 25 26 26 26

GFSFLT1_sfc_30mbdewp_165.txt.gz
Dewpoint
32 31 30 30 34 35 35 36 39 39 37 36 35 35 35 37 38 39 43 44 44 45 44 45 45 45 45 46 46 47 46 45
32 31 31 30 34 33 34 34 36 35 32 33 33 33 34 35 37 39 41 42 43 43 42 43 43 43 44 44 45 45 45 45
32 32 31 31 32 32 32 32 33 33 32 33 34 34 34 35 36 38 39 40 41 41 42 42 43 42 43 43 43 44 44 45
32 32 31 32 32 32 31 31 32 34 35 31 32 32 31 31 34 35 37 39 40 40 41 41 41 41 41 42 42 42 43 44
31 31 31 31 32 33 32 32 31 32 35 33 35 32 31 33 33 35 37 37 37 39 40 40 40 40 40 41 41 42 42 42
31 31 29 29 32 33 33 32 32 33 35 35 34 34 34 33 34 35 35 35 36 37 38 39 39 39 39 39 40 41 41 41
31 30 29 29 33 33 33 31 30 33 34 34 35 35 35 34 34 34 33 34 34 35 37 37 38 38 39 40 40 40 40 40
32 29 28 27 30 32 30 30 29 31 32 33 34 34 34 32 33 33 34 33 33 34 36 36 36 37 37 39 39 39 39 39
32 29 27 28 29 30 31 29 28 30 31 32 33 33 32 32 33 34 34 33 33 34 35 35 35 36 36 37 38 38 38 39
32 29 28 28 28 31 32 30 28 29 31 31 31 33 33 33 33 34 33 34 33 33 34 34 34 35 35 36 37 37 37 38
31 29 29 28 28 30 31 30 28 29 31 31 31 33 33 33 32 32 33 33 33 32 32 32 33 33 34 35 36 36 35 36
31 29 29 28 28 28 29 29 28 29 30 31 32 32 32 32 32 32 31 32 31 31 31 31 31 31 32 33 32 33 33 34
31 30 30 28 27 25 26 28 28 29 29 30 31 31 31 31 31 30 30 30 31 30 30 29 29 30 31 31 31 32 31 31
31 34 31 29 28 27 26 26 27 28 27 29 30 30 29 29 29 29 29 29 29 29 28 28 28 29 28 30 31 29 29 29
31 33 33 32 29 28 26 27 27 27 27 28 28 28 28 28 28 28 28 28 27 28 27 27 28 27 27 28 27 27 27 27
31 31 31 32 31 29 26 27 26 27 26 26 27 27 27 27 27 27 27 27 27 26 26 27 26 27 26 25 26 26 26 26
31 30 29 30 29 26 25 26 26 26 26 25 25 26 25 26 25 25 25 25 25 25 25 25 26 25 26 24 24 25 25 27
29 28 29 28 26 24 24 23 25 24 25 24 24 25 25 25 24 24 24 23 23 23 23 24 25 25 25 23 23 24 25 26
28 29 29 26 22 21 22 22 23 23 23 23 23 24 23 23 23 23 22 22 22 22 22 23 24 23 24 23 23 23 25 24

GFSFLT1_sfc_30mbdewp_168.txt.gz
Dewpoint
34 33 32 32 35 37 37 39 40 41 40 39 38 40 38 40 40 42 44 45 45 46 45 46 45 45 45 46 46 45 45 46
33 33 32 32 37 36 35 38 37 36 35 35 36 36 37 38 39 40 43 43 44 44 44 44 44 43 44 45 43 43 43 44
33 33 33 33 35 34 34 34 35 35 34 35 36 36 36 36 39 40 42 42 42 40 43 43 43 42 42 42 41 41 41 44
33 33 34 34 35 34 32 33 34 36 37 34 36 35 35 36 37 38 40 40 40 41 41 42 42 40 39 40 40 40 41 41
33 33 34 34 35 34 33 33 33 35 37 36 36 34 33 35 36 39 39 39 39 39 40 41 41 40 39 38 39 40 41 40
33 33 33 33 35 35 34 33 33 36 37 37 36 36 36 35 36 37 38 38 39 39 40 40 40 38 38 38 38 39 39 40
33 33 32 33 35 36 35 32 33 35 35 36 36 36 36 35 35 36 37 37 37 38 38 39 38 37 37 36 37 38 38 39
33 31 30 32 34 35 34 31 31 33 34 34 35 35 34 34 34 35 36 36 36 37 37 38 37 35 35 35 36 37 37 37
33 31 30 30 32 33 30 30 30 32 33 33 34 34 34 34 35 35 35 35 36 36 37 36 36 34 34 35 35 35 36 36
33 31 31 30 31 33 33 30 29 31 32 33 33 35 35 35 35 35 35 35 34 35 35 34 33 33 33 33 33 35 34 35
34 32 31 30 31 33 33 30 30 31 32 33 33 34 34 34 34 34 34 34 34 33 33 32 31 31 31 32 31 33 33 32
34 31 31 30 30 32 32 30 30 31 31 32 34 34 33 33 33 33 32 32 32 31 30 30 30 30 29 30 31 30 32 31
33 32 31 30 29 28 30 30 30 30 30 32 33 32 31 31 31 31 31 30 30 30 29 29 28 28 28 29 31 29 28 27
33 33 32 30 28 27 27 28 28 28 28 30 31 30 30 30 30 30 29 29 28 28 29 29 28 29 27 30 27 26 26 26
36 34 33 31 29 28 27 28 28 28 28 28 29 29 29 29 29 28 28 28 28 27 28 27 28 28 28 27 26 25 25 25
33 32 32 33 32 29 28 28 27 27 27 27 28 28 27 28 27 28 27 26 26 26 25 27 28 27 28 27 26 25 24 25
33 31 30 31 31 28 27 27 27 27 27 25 26 26 26 26 26 26 26 24 25 25 25 26 27 25 29 23 23 23 23 24
31 29 29 30 27 27 25 25 26 25 25 25 25 24 24 24 24 24 23 24 24 24 25 25 25 26 25 22 21 21 22 23
30 29 29 29 25 24 24 23 24 24 24 23 23 23 23 23 22 21 22 22 22 22 22 24 24 24 22 22 20 21 21 22

GFSFLT1_sfc_30mbdewp_174.txt.gz
Dewpoint
36 38 39 39 40 41 41 40 40 41 41 42 40 41 42 42 43 43 43 43 43 43 43 42 42 41 40 40 40 40 40 39
35 37 38 39 39 40 38 37 36 38 36 36 36 37 40 41 41 42 42 41 42 42 42 42 41 40 39 39 39 38 38 38
34 36 37 37 37 38 37 35 35 35 36 36 36 37 39 41 40 41 41 41 42 41 41 40 40 39 38 38 37 36 37 39
33 35 35 36 35 36 35 35 35 37 37 37 37 37 37 38 39 38 40 42 41 40 40 39 38 38 37 37 36 35 36 36
33 34 35 34 34 35 35 36 36 37 38 37 36 35 36 37 38 38 40 40 39 40 39 38 37 37 36 36 35 35 37 36
32 34 34 33 33 34 35 36 37 37 37 37 36 36 36 37 37 37 38 39 38 39 38 37 36 36 35 35 35 36 36 35
33 34 33 33 33 34 35 36 36 36 36 36 35 35 35 35 35 36 36 37 37 36 36 35 35 34 33 33 34 34 34 35
34 33 33 33 33 34 35 35 35 35 35 35 35 35 35 34 35 34 35 35 35 34 34 33 33 33 32 32 33 33 33 32
34 34 34 34 33 33 34 34 34 34 35 35 36 36 35 35 35 34 33 33 34 34 33 32 32 31 31 30 30 30 31 33
33 34 34 33 32 32 33 34 34 35 35 35 35 35 35 34 34 33 32 33 31 32 32 31 30 30 29 29 30 31 29 28
33 34 33 33 32 32 33 34 33 34 35 34 34 34 34 33 32 31 31 31 31 31 31 31 30 29 30 29 30 28 25 26
33 33 34 33 31 32 33 33 33 34 34 33 32 33 33 31 30 30 30 30 29 30 30 30 28 29 31 29 26 25 24 24
32 34 34 32 31 32 32 32 32 34 33 32 32 32 30 29 29 29 30 29 29 29 28 28 29 31 29 27 25 24 22 22
32 33 33 32 31 31 31 30 31 33 32 32 31 29 28 27 28 30 29 27 27 27 26 29 27 31 26 25 24 23 21 21
32 33 32 32 32 31 29 29 30 31 31 29 29 28 27 27 28 27 27 27 26 26 28 27 27 29 25 24 24 22 19 20
32 31 31 31 30 30 29 29 30 30 29 28 27 27 27 26 26 26 26 27 26 26 25 25 27 27 23 21 22 19 19 20
32 30 30 30 30 29 29 29 29 29 28 27 26 26 25 24 24 24 25 24 24 24 24 25 25 21 19 18 20 17 19 17
31 29 29 29 29 29 29 29 28 28 27 26 25 25 23 23 22 22 22 21 21 21 22 23 20 19 17 17 18 17 17 17
30 30 30 30 29 29 29 29 28 27 25 24 25 23 22 22 20 19 19 20 20 18 19 20 20 16 16 16 18 18 17 17

GFSFLT1_sfc_30mbdewp_180.txt.gz
Dewpoint
52 47 43 44 44 44 44 43 43 43 44 44 44 43 43 43 43 43 42 42 41 40 39 39 38 37 37 37 37 37 37 37
49 44 43 43 43 43 43 42 42 43 42 42 42 41 41 42 42 42 41 40 40 39 38 38 38 37 36 36 36 36 36 37
43 42 42 42 42 42 42 41 41 42 40 40 40 40 41 41 42 41 41 40 38 37 37 37 37 36 35 36 35 35 35 36
41 41 41 41 42 41 40 40 39 39 38 39 40 40 40 40 39 39 39 39 38 37 37 36 36 35 35 35 35 35 34 35
40 40 40 41 40 38 37 38 37 37 38 39 38 37 37 38 38 38 38 37 36 36 35 35 34 34 34 34 34 35 35 33
38 39 39 39 37 36 37 37 37 37 38 38 37 37 38 38 37 35 35 35 35 35 34 34 33 33 33 33 33 33 33 33
37 38 37 36 36 36 37 37 37 37 37 38 37 37 37 36 35 34 34 34 34 33 33 33 32 32 32 32 33 31 29 26
35 35 35 35 35 36 36 36 36 36 37 36 36 36 36 35 35 34 33 32 32 32 32 31 31 31 31 32 30 26 26 25
34 34 34 35 35 35 35 35 35 36 36 35 35 35 35 34 34 33 32 32 32 32 31 31 31 31 32 28 25 25 25 26
33 34 34 35 35 35 35 35 35 35 35 36 35 34 33 32 33 33 32 32 31 30 30 31 31 29 28 28 24 23 24 24
33 33 34 34 35 35 35 35 35 35 35 35 34 33 32 32 32 31 31 31 30 29 30 31 29 26 25 24 24 23 22 23
34 33 34 34 35 35 35 35 34 34 34 33 32 32 31 31 31 31 31 31 29 30 31 29 27 24 24 23 21 20 20 21
34 32 33 34 34 35 36 36 34 34 34 32 31 31 31 30 30 30 29 28 29 28 31 27 25 23 23 22 19 18 19 20
37 34 34 35 35 36 37 36 35 35 34 32 30 30 30 28 28 29 28 29 28 28 29 25 23 24 23 21 17 18 19 18
38 38 37 37 38 38 38 36 35 33 31 29 29 29 29 28 28 27 28 26 24 27 27 24 24 22 21 20 14 17 17 17
38 38 37 37 37 37 36 35 33 31 29 28 28 28 27 28 27 26 25 24 25 26 25 22 19 18 19 20 15 16 15 16
39 39 38 36 36 34 34 32 31 29 28 27 27 26 26 26 24 23 22 23 22 21 20 19 18 17 18 17 16 15 15 14
39 39 37 35 33 32 32 30 29 28 27 26 25 25 24 23 22 20 19 20 21 19 19 18 17 18 18 17 15 14 15 13
37 38 36 34 31 31 31 29 28 27 26 25 25 25 22 21 20 18 17 17 17 17 17 17 17 18 18 18 14 15 15 13